Weather History for Quincy, IL

Change the Weather History Date:

Sunday, March 10, 2013

  Actual Average Record
Temperature  
Mean Temperature 44 °F 40 °F  
Max Temperature 50 °F 49 °F 79 °F (1955)
Min Temperature 37 °F 30 °F 3 °F (1934)
Degree Days  
Heating Degree Days 21 26  
Month to date heating degree days 336 274  
Since 1 July heating degree days 4447 4616  
Cooling Degree Days 0 0  
Month to date cooling degree days 0 0  
Year to date cooling degree days 0 0  
Moisture  
Dew Point 45 °F    
Average Humidity 95    
Maximum Humidity 100    
Minimum Humidity 89    
Precipitation  
Precipitation 0.78 in 0.07 in 1.58 in (1901)
Month to date precipitation 2.03 0.77  
Year to date precipitation 7.50 4.17  
Sea Level Pressure  
Sea Level Pressure 29.67 in    
Wind  
Wind Speed 8 mph (South)    
Max Wind Speed 24 mph    
Max Gust Speed 30 mph    
Visibility 4 miles    
Events Fog , Rain    
T = Trace of Precipitation, MM = Missing Value Source: NWS Daily Summary

Daily Weather History Graph

Daily Weather History Graph

Search for Another Location

Airport:

Trip Planner

Search our weather history database for the weather conditions in past years. The results will help you decide how hot, cold, wet, or windy it might be!

Date:

Astronomy

Mar. 10, 2013 Rise Set
Actual Time 7:23 AM CDT 7:06 PM CDT
Civil Twilight 6:56 AM CDT 7:33 PM CDT
Nautical Twilight 6:25 AM CDT 8:05 PM CDT
Astronomical Twilight 5:53 AM CDT 8:36 PM CDT
Moon 6:23 AM CDT (3/10) 6:14 PM CDT (3/10)
Length of Visible Light 12h 36m
Length of Day
11h 42m
Waning Crescent, 2% of the Moon is Illuminated
Mar 10
Waning Crescent
Mar 11
New
Mar 19
First Quarter
Mar 27
Full
Apr 2
Last Quarter

Hourly Weather History & Observations

Time (CDT) Temp. Windchill Dew Point Humidity Pressure Visibility Wind Dir Wind Speed Gust Speed Precip Events Conditions
12:54 AM 42.1 °F 37.1 °F 39.0 °F 89% 29.75 in 8.0 mi NNE 8.1 mph - 0.05 in Rain Light Rain
1:54 AM 39.9 °F - 39.9 °F 100% 29.76 in 2.5 mi Calm Calm - 0.08 in Rain Rain
3:08 AM 42.8 °F - 42.8 °F 100% 29.75 in 3.0 mi Calm Calm - 0.04 in Rain Rain
3:22 AM 42.8 °F 40.1 °F 42.8 °F 100% 29.75 in 2.5 mi ESE 4.6 mph - 0.10 in Rain Rain
3:54 AM 43.0 °F 39.5 °F 42.1 °F 97% 29.73 in 2.5 mi SSE 5.8 mph - 0.16 in Rain Light Rain
4:17 AM 44.6 °F 35.9 °F 44.6 °F 100% 29.62 in 3.0 mi ESE 23.0 mph 29.9 mph 0.02 in Rain Light Rain
4:54 AM 48.0 °F - 48.0 °F 100% 29.69 in 5.0 mi South 11.5 mph - 0.02 in   Overcast
5:01 AM 48.2 °F - 48.2 °F 100% 29.69 in 6.0 mi South 9.2 mph - N/A   Overcast
5:40 AM 48.2 °F - 46.4 °F 93% 29.68 in 1.8 mi SE 8.1 mph - N/A   Mostly Cloudy
5:47 AM 44.6 °F 40.7 °F 44.6 °F 100% 29.68 in 0.2 mi SE 6.9 mph - N/A Fog Fog
5:54 AM 46.0 °F 41.9 °F 45.0 °F 96% 29.68 in 0.2 mi SE 8.1 mph - N/A Fog Fog
6:06 AM 46.4 °F 41.1 °F 46.4 °F 100% 29.65 in 0.5 mi ESE 11.5 mph - N/A Fog Fog
6:17 AM 46.4 °F 40.7 °F 46.4 °F 100% 29.64 in 2.0 mi SE 12.7 mph - N/A   Overcast
6:30 AM 46.4 °F 43.5 °F 46.4 °F 100% 29.68 in 0.8 mi SSE 5.8 mph - N/A   Overcast
6:43 AM 48.2 °F - 46.4 °F 93% 29.69 in 2.0 mi South 8.1 mph - N/A   Overcast
6:52 AM 48.2 °F - 48.2 °F 100% 29.70 in 7.0 mi SSE 9.2 mph - N/A   Overcast
6:54 AM 48.2 °F - 48.2 °F 100% 29.70 in 7.0 mi South 9.2 mph - N/A   Overcast
7:07 AM 48.2 °F - 46.4 °F 93% 29.71 in 8.0 mi SSE 9.2 mph - N/A   Overcast
7:54 AM 46.9 °F - 46.0 °F 97% 29.71 in 2.5 mi SSE 6.9 mph - 0.02 in Rain Light Rain
8:07 AM 44.6 °F 40.7 °F 44.6 °F 100% 29.69 in 1.5 mi SE 6.9 mph - 0.01 in Rain Light Rain
8:15 AM 46.4 °F 42.4 °F 44.6 °F 93% 29.69 in 3.0 mi SE 8.1 mph - 0.01 in Rain Light Rain
8:34 AM 44.6 °F 41.4 °F 44.6 °F 100% 29.69 in 2.0 mi SE 5.8 mph - 0.01 in Rain Light Rain
8:45 AM 44.6 °F 41.4 °F 44.6 °F 100% 29.70 in 3.0 mi SSE 5.8 mph - 0.02 in Rain Light Rain
8:54 AM 46.0 °F 42.5 °F 45.0 °F 96% 29.72 in 3.0 mi SSE 6.9 mph - 0.02 in Rain Light Rain
9:54 AM 48.9 °F - 46.9 °F 93% 29.71 in 3.0 mi South 4.6 mph - 0.03 in Rain Light Rain
10:04 AM 48.2 °F - 48.2 °F 100% 29.68 in 2.5 mi South 5.8 mph - 0.01 in Rain Light Rain
10:38 AM 48.2 °F - 46.4 °F 93% 29.68 in 1.8 mi South 6.9 mph - 0.01 in Rain Light Rain
10:50 AM 50.0 °F - 48.0 °F 93% 29.69 in 3.0 mi South 8.1 mph - 0.01 in Rain Light Rain
11:05 AM 48.2 °F - 48.2 °F 100% 29.71 in 2.0 mi SSW 10.4 mph - 0.01 in Rain Light Rain
11:54 AM 50.0 °F - 48.0 °F 93% 29.69 in 3.0 mi WSW 6.9 mph - 0.11 in Rain Light Rain
12:39 PM 48.2 °F - 48.2 °F 100% 29.70 in 2.5 mi South 5.8 mph - 0.05 in Rain Light Rain
12:50 PM 48.2 °F - 48.2 °F 100% 29.70 in 3.0 mi South 5.8 mph - 0.06 in Rain Light Rain
12:54 PM 48.9 °F - 46.9 °F 93% 29.70 in 3.0 mi South 5.8 mph - 0.07 in Rain Light Rain
1:44 PM 48.2 °F - 48.2 °F 100% 29.68 in 5.0 mi SW 10.4 mph - 0.04 in Rain Light Rain
1:54 PM 48.9 °F - 46.9 °F 93% 29.71 in 5.0 mi SW 9.2 mph - 0.05 in Rain Light Rain
2:15 PM 48.2 °F - 46.4 °F 93% 29.67 in 5.0 mi SSW 5.8 mph - 0.03 in Rain Light Rain
2:23 PM 48.2 °F - 46.4 °F 93% 29.66 in 5.0 mi South 5.8 mph - 0.03 in Rain Light Rain
2:54 PM 48.0 °F - 46.0 °F 93% 29.61 in 5.0 mi ESE 8.1 mph - 0.06 in Rain Light Rain
3:23 PM 46.4 °F 40.4 °F 46.4 °F 100% 29.54 in 8.0 mi East 13.8 mph - 0.00 in   Mostly Cloudy
3:54 PM 48.0 °F - 46.9 °F 96% 29.62 in 5.0 mi SSE 8.1 mph - 0.02 in Rain Rain
4:38 PM 48.2 °F - 46.4 °F 93% 29.63 in 4.0 mi SW 4.6 mph - 0.06 in Rain Light Rain
4:54 PM 48.9 °F - 48.0 °F 97% 29.63 in 8.0 mi SSW 6.9 mph - 0.06 in   Overcast
5:54 PM 48.9 °F - 46.9 °F 93% 29.63 in 7.0 mi West 3.5 mph - N/A   Overcast
6:23 PM 48.2 °F - 46.4 °F 93% 29.63 in 1.8 mi West 4.6 mph - 0.01 in Rain Light Rain
6:29 PM 48.2 °F - 46.4 °F 93% 29.63 in 3.0 mi West 5.8 mph - 0.01 in Rain Light Rain
6:49 PM 48.2 °F - 46.4 °F 93% 29.64 in 2.0 mi West 3.5 mph - 0.01 in   Overcast
6:54 PM 46.9 °F - 46.0 °F 97% 29.64 in 2.5 mi West 3.5 mph - 0.01 in   Overcast
7:06 PM 46.4 °F - 46.4 °F 100% 29.64 in 3.0 mi Calm Calm - N/A   Overcast
7:14 PM 46.4 °F - 46.4 °F 100% 29.64 in 2.5 mi Calm Calm - N/A   Overcast
7:27 PM 46.4 °F - 46.4 °F 100% 29.64 in 1.0 mi Calm Calm - N/A   Overcast
7:32 PM 46.4 °F - 44.6 °F 93% 29.64 in 0.8 mi Calm Calm - N/A   Overcast
7:54 PM 46.9 °F - 45.0 °F 93% 29.65 in 0.5 mi Calm Calm - N/A Fog Fog
8:14 PM 46.4 °F - 44.6 °F 93% 29.64 in 0.2 mi Calm Calm - N/A Fog Fog
8:24 PM 46.4 °F 45.2 °F 44.6 °F 93% 29.65 in 0.2 mi SSE 3.5 mph - 0.01 in Fog , Rain Light Rain
8:33 PM 44.6 °F - 44.6 °F 100% 29.65 in 0.5 mi Calm Calm - 0.01 in Fog Fog
8:42 PM 44.6 °F 38.8 °F 44.6 °F 100% 29.66 in 0.2 mi WSW 11.5 mph - 0.01 in Fog , Rain Light Rain
8:48 PM 46.4 °F 41.9 °F 44.6 °F 93% 29.65 in 1.0 mi SW 9.2 mph - 0.02 in Rain Light Rain
8:51 PM 46.4 °F 41.9 °F 44.6 °F 93% 29.65 in 5.0 mi SW 9.2 mph - 0.02 in Rain Light Rain
9:06 PM 46.4 °F 40.1 °F 44.6 °F 93% 29.66 in 10.0 mi WSW 15.0 mph - N/A   Overcast
9:22 PM 44.6 °F 37.4 °F 42.8 °F 93% 29.67 in 10.0 mi SW 16.1 mph 23.0 mph N/A   Overcast
9:33 PM 44.6 °F 38.4 °F 42.8 °F 93% 29.67 in 10.0 mi WSW 12.7 mph - N/A   Overcast
9:54 PM 43.0 °F 36.0 °F 39.9 °F 89% 29.69 in 10.0 mi WSW 13.8 mph 19.6 mph N/A   Overcast
10:11 PM 42.8 °F 36.2 °F 39.2 °F 87% 29.69 in 10.0 mi SW 12.7 mph - N/A   Overcast
10:54 PM 41.0 °F 32.8 °F 39.0 °F 93% 29.70 in 7.0 mi WSW 16.1 mph - N/A   Overcast
11:50 PM 39.2 °F 29.8 °F 37.4 °F 93% 29.69 in 2.5 mi WSW 18.4 mph - N/A   Overcast
11:54 PM 37.4 °F 28.2 °F 37.4 °F 100% 29.69 in 3.0 mi WSW 16.1 mph - N/A   Overcast
12:54 AM 37.0 °F 28.1 °F 35.1 °F 93% 29.71 in 3.0 mi WSW 15.0 mph 23.0 mph N/A   Overcast